LASARSAT

Last updated on Mon Sep 21 2026 00:03:15 GMT+0000 (Coordinated Universal Time)

1 62391U 24247Q 26262.82201670 .00033498 00000+0 53930-3 0 9993 2 62391 44.9718 88.0673 0009767 232.1281 127.8728 15.52377278 97992
UTC large
Height (km)
Speed (km/s)
/
Latitude / Longitude
Inclination (degrees)
Orbital Period (minutes)
Azimuth
Elevation
Range (km)
Doppler Factor

Next 0 passes for location: London (51.5072 / 0.1276)

No passes found over London.
LASARSAT